When you browse on this site, cookies collect data to enhance your experience and personalize the content and advertising you see.
Visit our Privacy Policy to learn more. By continuing to use the site, you agree to this use of cookies and data.
  • In Österreich
  • Länderverzeichnis
  • Für 7 Tage
  • Wassertemperatur
  • Wetterkarte
  • News
  • Widgets
  • user-avatar
    Anmelden

    Stündliche Wetter Tetepango

    Heute, 22 November, Freitag

    Zeit Temperatur Niederschläge Wind Luftdruck Luftfeuchtigkeit
    00:00 +14°C° 0 mm 0 m/S 589 mmHg 74%
    01:00 +14°C° 0 mm 0 m/S 588 mmHg 74%
    02:00 +14°C° 0 mm 1 m/S 588 mmHg 74%
    03:00 +13°C° 0 mm 0 m/S 588 mmHg 74%
    04:00 +12°C° 0 mm 0 m/S 588 mmHg 75%
    05:00 +12°C° 0 mm 0 m/S 588 mmHg 75%
    06:00 +14°C° 0 mm 0 m/S 589 mmHg 68%
    07:00 +16°C° 0 mm 1 m/S 590 mmHg 61%
    08:00 +19°C° 0 mm 1 m/S 591 mmHg 54%
    09:00 +21°C° 0 mm 1 m/S 591 mmHg 48%
    10:00 +22°C° 0 mm 1 m/S 592 mmHg 42%
    11:00 +24°C° 0 mm 2 m/S 592 mmHg 35%
    12:00 +25°C° 0 mm 2 m/S 591 mmHg 32%
    13:00 +25°C° 0 mm 2 m/S 591 mmHg 29%
    14:00 +26°C° 0 mm 3 m/S 590 mmHg 26%
    15:00 +24°C° 0 mm 3 m/S 590 mmHg 30%
    16:00 +22°C° 0 mm 3 m/S 589 mmHg 35%
    17:00 +20°C° 0 mm 3 m/S 589 mmHg 39%
    18:00 +19°C° 0 mm 2 m/S 589 mmHg 46%
    19:00 +18°C° 0 mm 2 m/S 589 mmHg 52%
    20:00 +18°C° 0 mm 1 m/S 589 mmHg 59%
    21:00 +16°C° 0 mm 1 m/S 589 mmHg 61%
    22:00 +15°C° 0 mm 1 m/S 589 mmHg 64%
    23:00 +14°C° 0 mm 0 m/S 588 mmHg 66%

    Morgen, 23 November, Samstag

    Zeit Temperatur Niederschläge Wind Luftdruck Luftfeuchtigkeit
    00:00 +13°C° 0 mm 0 m/S 588 mmHg 66%
    01:00 +12°C° 0 mm 0 m/S 588 mmHg 65%
    02:00 +12°C° 0 mm 0 m/S 587 mmHg 65%
    03:00 +12°C° 0 mm 0 m/S 587 mmHg 65%
    04:00 +11°C° 0 mm 0 m/S 587 mmHg 64%
    05:00 +11°C° 0 mm 0 m/S 587 mmHg 64%
    06:00 +13°C° 0 mm 0 m/S 588 mmHg 57%
    07:00 +14°C° 0 mm 0 m/S 590 mmHg 51%
    08:00 +16°C° 0 mm 0 m/S 591 mmHg 44%
    09:00 +18°C° 0 mm 0 m/S 591 mmHg 38%
    10:00 +19°C° 0 mm 0 m/S 592 mmHg 32%
    11:00 +23°C° 0 mm 1 m/S 592 mmHg 27%
    12:00 +24°C° 0 mm 1 m/S 592 mmHg 27%
    13:00 +24°C° 0 mm 2 m/S 591 mmHg 27%
    14:00 +25°C° 0 mm 3 m/S 591 mmHg 27%
    15:00 +22°C° 0 mm 3 m/S 591 mmHg 36%
    16:00 +20°C° 0 mm 3 m/S 590 mmHg 45%
    17:00 +19°C° 0 mm 3 m/S 589 mmHg 54%
    18:00 +18°C° 0 mm 2 m/S 590 mmHg 64%
    19:00 +17°C° 0 mm 2 m/S 590 mmHg 74%
    20:00 +16°C° 0 mm 1 m/S 590 mmHg 84%
    21:00 +15°C° 0 mm 1 m/S 590 mmHg 86%
    22:00 +15°C° 0 mm 1 m/S 590 mmHg 87%
    23:00 +14°C° 0 mm 1 m/S 589 mmHg 88%

    übermorgen, 24 November, Sonntag

    Zeit Temperatur Niederschläge Wind Luftdruck Luftfeuchtigkeit
    00:00 +14°C° 0 mm 1 m/S 589 mmHg 87%
    01:00 +14°C° 0 mm 1 m/S 589 mmHg 86%
    02:00 +13°C° 0 mm 1 m/S 588 mmHg 84%
    03:00 +13°C° 0 mm 1 m/S 588 mmHg 86%
    04:00 +11°C° 0 mm 0 m/S 588 mmHg 88%
    05:00 +10°C° 0 mm 0 m/S 587 mmHg 90%
    06:00 +11°C° 0 mm 0 m/S 588 mmHg 84%
    07:00 +12°C° 0 mm 0 m/S 589 mmHg 77%
    08:00 +14°C° 0 mm 0 m/S 590 mmHg 71%
    09:00 +16°C° 0 mm 0 m/S 591 mmHg 61%
    10:00 +18°C° 0 mm 0 m/S 591 mmHg 52%
    11:00 +20°C° 0 mm 0 m/S 591 mmHg 42%
    12:00 +22°C° 0 mm 1 m/S 591 mmHg 38%
    13:00 +23°C° 0 mm 1 m/S 591 mmHg 35%
    14:00 +24°C° 0 mm 2 m/S 590 mmHg 31%
    15:00 +23°C° 0 mm 2 m/S 590 mmHg 37%
    16:00 +20°C° 0 mm 2 m/S 589 mmHg 43%
    17:00 +19°C° 0 mm 2 m/S 589 mmHg 49%
    18:00 +19°C° 0 mm 1 m/S 589 mmHg 56%
    19:00 +18°C° 0 mm 1 m/S 589 mmHg 63%
    20:00 +16°C° 0 mm 1 m/S 589 mmHg 69%
    21:00 +16°C° 0 mm 1 m/S 588 mmHg 70%
    22:00 +15°C° 0 mm 1 m/S 588 mmHg 71%
    23:00 +15°C° 0 mm 1 m/S 588 mmHg 72%

    25 November, Montag

    Zeit Temperatur Niederschläge Wind Luftdruck Luftfeuchtigkeit
    00:00 +15°C° 0 mm 1 m/S 587 mmHg 72%
    01:00 +14°C° 0 mm 1 m/S 587 mmHg 72%
    02:00 +14°C° 0 mm 1 m/S 587 mmHg 72%
    03:00 +14°C° 0 mm 1 m/S 586 mmHg 73%
    04:00 +13°C° 0 mm 1 m/S 586 mmHg 75%
    05:00 +13°C° 0 mm 1 m/S 586 mmHg 77%
    06:00 +15°C° 0 mm 1 m/S 587 mmHg 71%
    07:00 +16°C° 0 mm 1 m/S 588 mmHg 65%
    08:00 +19°C° 0 mm 1 m/S 589 mmHg 59%
    09:00 +21°C° 0 mm 1 m/S 589 mmHg 53%
    10:00 +22°C° 0 mm 1 m/S 589 mmHg 48%
    11:00 +24°C° 0 mm 1 m/S 590 mmHg 42%
    12:00 +24°C° 0 mm 2 m/S 589 mmHg 39%
    13:00 +25°C° 0 mm 2 m/S 589 mmHg 36%
    14:00 +25°C° 0 mm 3 m/S 589 mmHg 32%
    15:00 +24°C° 0 mm 3 m/S 588 mmHg 36%
    16:00 +22°C° 0 mm 3 m/S 588 mmHg 40%
    17:00 +20°C° 0 mm 2 m/S 588 mmHg 44%
    18:00 +19°C° 0 mm 2 m/S 588 mmHg 48%
    19:00 +19°C° 0 mm 1 m/S 588 mmHg 53%
    20:00 +19°C° 0 mm 1 m/S 588 mmHg 57%
    21:00 +18°C° 0 mm 1 m/S 588 mmHg 61%
    22:00 +15°C° 0 mm 0 m/S 587 mmHg 65%
    23:00 +15°C° 0 mm 0 m/S 587 mmHg 69%

    26 November, Dienstag

    Zeit Temperatur Niederschläge Wind Luftdruck Luftfeuchtigkeit
    00:00 +14°C° 0 mm 0 m/S 587 mmHg 69%
    01:00 +14°C° 0 mm 0 m/S 586 mmHg 69%
    02:00 +14°C° 0 mm 0 m/S 586 mmHg 70%
    03:00 +13°C° 0 mm 0 m/S 586 mmHg 70%
    04:00 +14°C° 0 mm 1 m/S 586 mmHg 71%
    05:00 +14°C° 0 mm 1 m/S 586 mmHg 71%
    06:00 +15°C° 0 mm 1 m/S 587 mmHg 66%
    07:00 +18°C° 0 mm 1 m/S 588 mmHg 60%
    08:00 +20°C° 0 mm 1 m/S 589 mmHg 55%
    09:00 +21°C° 0 mm 1 m/S 589 mmHg 49%
    10:00 +23°C° 0 mm 1 m/S 589 mmHg 44%
    11:00 +25°C° 0 mm 1 m/S 590 mmHg 39%
    12:00 +25°C° 0 mm 1 m/S 590 mmHg 36%
    13:00 +26°C° 0 mm 1 m/S 589 mmHg 33%
    14:00 +27°C° 0 mm 1 m/S 589 mmHg 30%
    15:00 +25°C° 0 mm 2 m/S 589 mmHg 36%
    16:00 +24°C° 0 mm 2 m/S 589 mmHg 41%
    17:00 +21°C° 0 mm 3 m/S 588 mmHg 46%
    18:00 +21°C° 0 mm 2 m/S 588 mmHg 53%
    19:00 +20°C° 0 mm 2 m/S 589 mmHg 59%
    20:00 +20°C° 0 mm 1 m/S 589 mmHg 66%
    21:00 +19°C° 0 mm 1 m/S 589 mmHg 69%
    22:00 +18°C° 0 mm 1 m/S 589 mmHg 71%
    23:00 +18°C° 0 mm 1 m/S 588 mmHg 74%

    27 November, Mittwoch

    Zeit Temperatur Niederschläge Wind Luftdruck Luftfeuchtigkeit
    00:00 +15°C° 0 mm 0 m/S 588 mmHg 76%
    01:00 +14°C° 0 mm 0 m/S 588 mmHg 79%
    02:00 +14°C° 0 mm 0 m/S 587 mmHg 81%
    03:00 +13°C° 0 mm 0 m/S 587 mmHg 82%
    04:00 +13°C° 0 mm 0 m/S 587 mmHg 83%
    05:00 +13°C° 0 mm 0 m/S 587 mmHg 85%
    06:00 +14°C° 0 mm 0 m/S 588 mmHg 77%
    07:00 +16°C° 0 mm 0 m/S 590 mmHg 70%
    08:00 +17°C° 0 mm 0 m/S 591 mmHg 63%
    09:00 +21°C° 0 mm 1 m/S 591 mmHg 55%
    10:00 +22°C° 0 mm 1 m/S 592 mmHg 47%
    11:00 +24°C° 0 mm 1 m/S 592 mmHg 39%
    12:00 +25°C° 0 mm 1 m/S 592 mmHg 34%
    13:00 +26°C° 0 mm 1 m/S 592 mmHg 30%
    14:00 +27°C° 0 mm 1 m/S 592 mmHg 25%
    15:00 +25°C° 0 mm 2 m/S 591 mmHg 37%
    16:00 +23°C° 0 mm 2 m/S 591 mmHg 48%
    17:00 +20°C° 0 mm 3 m/S 590 mmHg 60%
    18:00 +19°C° 0 mm 2 m/S 590 mmHg 69%
    19:00 +18°C° 0 mm 2 m/S 590 mmHg 78%
    20:00 +17°C° 0 mm 2 m/S 591 mmHg 88%
    21:00 +16°C° 0 mm 1 m/S 591 mmHg 87%
    22:00 +16°C° 0 mm 1 m/S 591 mmHg 87%
    23:00 +16°C° 0 mm 1 m/S 591 mmHg 86%
    Mehr zeigen